EW7929 Weather Reports


time (UTC)temp
C
wind
direction
speed
KPH
gust
KPH
rain 1hr
cm
rain 24hr
cm
rain mn
cm
humidity
%
barometer
mb
20260508014520 11 76 0.0 3.2 0.00 0.08 0.00 88 1015.0
20260508013517 11 77 1.6 3.2 0.00 0.08 0.00 89 1015.0
20260508013018 11 81 0.0 4.8 0.00 0.08 0.00 89 1015.0
20260508012515 11 81 0.0 4.8 0.00 0.08 0.00 88 1015.0
20260508012014 11 79 0.0 1.6 0.00 0.08 0.00 88 1015.0
20260508011516 11 79 0.0 3.2 0.00 0.08 0.00 88 1015.0
20260508011014 11 79 1.6 3.2 0.00 0.08 0.00 87 1015.0
20260508010514 11 72 1.6 6.4 0.00 0.08 0.00 88 1015.0
20260508010014 11 113 1.6 6.4 0.00 0.08 0.00 88 1015.1
20260508005514 11 70 0.0 4.8 0.00 0.08 0.00 88 1015.1
20260508005013 11 70 1.6 6.4 0.00 0.08 0.00 88 1015.1
20260508004507 11 114 1.6 6.4 0.00 0.08 0.00 88 1015.1
20260508004001 11 92 3.2 8.0 0.00 0.08 0.00 87 1015.1
20260508003456 11 74 3.2 8.0 0.00 0.08 0.00 88 1015.2
20260508002949 11 51 1.6 6.4 0.00 0.08 0.00 88 1015.2
20260508001937 11 106 3.2 6.4 0.00 0.08 0.00 88 1015.2
20260508001432 11 75 1.6 6.4 0.00 0.08 0.00 88 1015.4
20260508000925 11 114 3.2 8.0 0.00 0.08 0.00 88 1015.4
20260507235914 11 107 1.6 4.8 0.00 0.08 0.00 89 1015.4
20260507235407 11 58 0.0 1.6 0.00 0.08 0.00 89 1015.5
20260507234356 11 304 0.0 1.6 0.00 0.08 0.00 89 1015.6
20260507233850 11 304 0.0 1.6 0.00 0.08 0.00 89 1015.6
20260507233343 11 304 0.0 0.0 0.00 0.08 0.00 89 1015.7
20260507232837 11 304 0.0 0.0 0.00 0.08 0.00 89 1015.7
20260507232333 11 304 0.0 0.0 0.00 0.08 0.00 88 1015.6
20260507231825 11 304 0.0 0.0 0.00 0.08 0.00 89 1015.7
20260507231319 11 304 0.0 0.0 0.00 0.08 0.00 88 1015.8
20260507230813 11 304 0.0 0.0 0.00 0.08 0.00 89 1015.8
20260507230307 11 304 0.0 1.6 0.00 0.08 0.00 88 1015.9
20260507225802 11 304 0.0 1.6 0.00 0.08 0.00 88 1016.0
20260507224749 11 304 0.0 1.6 0.00 0.08 0.00 88 1016.0
20260507224302 11 304 0.0 1.6 0.00 0.08 0.00 88 1016.0
20260507223745 11 304 0.0 1.6 0.00 0.08 0.00 88 1016.1
20260507223245 11 304 0.0 1.6 0.00 0.08 0.00 87 1016.2
20260507222745 11 303 0.0 1.6 0.00 0.08 0.00 88 1016.2
20260507222244 11 302 0.0 0.0 0.00 0.08 0.00 88 1016.2
20260507220756 11 302 0.0 0.0 0.00 0.08 0.00 87 1016.2
20260507220241 11 302 0.0 0.0 0.00 0.08 0.00 87 1016.2
20260507215742 11 302 0.0 0.0 0.00 0.08 0.08 87 1016.4
20260507215241 11 302 0.0 1.6 0.00 0.08 0.08 87 1016.4
20260507214744 11 302 0.0 1.6 0.00 0.08 0.08 87 1016.4
20260507214242 11 302 0.0 1.6 0.00 0.08 0.08 87 1016.4
20260507213235 11 302 0.0 0.0 0.00 0.08 0.08 87 1016.2
20260507212237 11 302 0.0 0.0 0.00 0.08 0.08 86 1016.2
20260507211236 11 302 0.0 1.6 0.00 0.08 0.08 86 1016.0
20260507210735 11 302 0.0 1.6 0.00 0.08 0.08 86 1016.0
20260507210236 11 302 0.0 1.6 0.00 0.08 0.08 86 1016.2
20260507205736 11 302 0.0 1.6 0.00 0.08 0.08 86 1016.1
20260507205237 11 302 0.0 0.0 0.00 0.08 0.08 85 1016.0
20260507204736 12 302 0.0 1.6 0.00 0.08 0.08 85 1016.0
20260507203731 12 302 0.0 1.6 0.00 0.08 0.08 85 1015.9
20260507203231 12 336 0.0 1.6 0.00 0.08 0.08 84 1015.9
20260507202232 12 336 0.0 1.6 0.00 0.08 0.08 84 1015.9
20260507201732 12 336 0.0 1.6 0.00 0.08 0.08 84 1015.8
20260507201231 12 321 0.0 1.6 0.00 0.08 0.08 83 1015.9
20260507200733 12 321 0.0 1.6 0.00 0.08 0.08 84 1015.8
20260507200232 12 338 0.0 1.6 0.00 0.08 0.08 83 1015.7
20260507195732 12 338 0.0 1.6 0.00 0.08 0.08 83 1015.6
20260507195233 12 326 0.0 1.6 0.00 0.08 0.08 83 1015.6
20260507194232 13 305 0.0 1.6 0.00 0.08 0.08 83 1015.5
20260507193733 13 305 0.0 1.6 0.00 0.08 0.08 83 1015.5
20260507193232 13 304 0.0 1.6 0.00 0.08 0.08 82 1015.5
20260507192733 13 305 0.0 1.6 0.00 0.08 0.08 82 1015.6
20260507192230 13 70 0.0 0.0 0.00 0.08 0.08 82 1015.6
20260507191240 13 70 0.0 1.6 0.00 0.08 0.08 81 1015.6
20260507190729 13 70 0.0 1.6 0.00 0.08 0.08 81 1015.6
20260507190229 13 70 0.0 1.6 0.00 0.08 0.08 81 1015.6
20260507185721 13 70 0.0 1.6 0.00 0.08 0.08 80 1015.6
20260507185214 13 70 0.0 1.6 0.00 0.08 0.08 80 1015.5
20260507184708 14 70 0.0 3.2 0.00 0.08 0.08 80 1015.5
20260507183656 14 69 0.0 1.6 0.00 0.08 0.08 80 1015.4
20260507183151 14 70 0.0 1.6 0.00 0.08 0.08 80 1015.4
20260507182644 14 70 0.0 3.2 0.00 0.08 0.08 80 1015.2
20260507182139 14 70 1.6 3.2 0.00 0.08 0.08 79 1015.1
20260507181632 14 70 0.0 3.2 0.00 0.08 0.08 78 1015.1
20260507181127 15 53 0.0 1.6 0.00 0.08 0.08 77 1015.0
20260507180620 15 201 0.0 1.6 0.00 0.08 0.08 77 1015.0
20260507180114 15 201 0.0 1.6 0.00 0.08 0.08 76 1015.0
20260507175609 15 205 0.0 1.6 0.00 0.08 0.08 76 1015.1
20260507174558 16 207 0.0 1.6 0.00 0.08 0.08 75 1015.1
20260507174050 16 207 0.0 1.6 0.00 0.08 0.08 74 1014.9
20260507173544 16 207 0.0 1.6 0.00 0.08 0.08 73 1015.0
20260507173043 16 207 0.0 1.6 0.00 0.08 0.08 73 1015.0
20260507172533 16 161 0.0 4.8 0.00 0.08 0.08 72 1015.1
20260507172029 16 162 0.0 4.8 0.00 0.08 0.08 71 1015.0
20260507171014 17 155 1.6 6.4 0.00 0.08 0.08 70 1014.8
20260507170509 17 215 1.6 6.4 0.00 0.08 0.08 70 1014.8
20260507170002 17 180 0.0 6.4 0.00 0.08 0.08 70 1014.8
20260507165456 17 191 1.6 6.4 0.00 0.08 0.08 69 1014.8
20260507164950 17 198 1.6 6.4 0.00 0.08 0.08 69 1014.9
20260507164444 17 194 1.6 6.4 0.00 0.08 0.08 69 1014.9
20260507163939 17 207 1.6 6.4 0.00 0.08 0.08 69 1014.9
20260507161408 18 130 3.2 9.7 0.00 0.08 0.08 68 1014.9
20260507160905 18 153 3.2 11.3 0.00 0.08 0.08 68 1014.9
20260507160355 18 151 4.8 11.3 0.00 0.08 0.08 68 1014.8
20260507155850 18 115 4.8 11.3 0.00 0.08 0.08 68 1014.8
20260507154841 18 198 6.4 11.3 0.00 0.08 0.08 68 1014.8
20260507154333 18 117 4.8 11.3 0.00 0.08 0.08 68 1014.7
20260507153826 18 114 4.8 9.7 0.00 0.08 0.08 67 1014.7
20260507153320 18 152 3.2 9.7 0.00 0.08 0.08 66 1014.7
20260507152814 18 129 3.2 9.7 0.00 0.08 0.08 67 1014.7
20260507152309 18 63 4.8 11.3 0.00 0.08 0.08 67 1014.7
20260507151803 18 25 4.8 11.3 0.00 0.08 0.08 67 1014.8
20260507151256 18 88 3.2 8.0 0.00 0.08 0.08 67 1014.9
20260507150751 18 115 4.8 8.0 0.00 0.08 0.08 67 1014.8
20260507150245 18 79 4.8 11.3 0.00 0.08 0.08 67 1014.9
20260507145738 18 111 3.2 11.3 0.00 0.08 0.08 67 1014.9
20260507145232 18 113 3.2 6.4 0.00 0.08 0.08 67 1014.9
20260507144221 17 128 4.8 9.7 0.00 0.08 0.08 69 1015.0
20260507143208 18 99 4.8 12.9 0.00 0.08 0.08 68 1015.2
20260507142702 18 218 3.2 11.3 0.00 0.08 0.08 67 1015.1
20260507142156 18 242 4.8 17.7 0.00 0.08 0.08 68 1015.1
20260507141144 18 108 4.8 14.5 0.00 0.08 0.08 68 1015.1
20260507135626 17 98 3.2 8.0 0.00 0.08 0.08 69 1015.4
20260507135120 17 181 3.2 8.0 0.00 0.08 0.08 69 1015.4
20260507134620 17 120 1.6 9.7 0.00 0.08 0.08 69 1015.5
20260507134107 17 263 3.2 9.7 0.00 0.08 0.08 71 1015.4
20260507133602 17 38 3.2 9.7 0.00 0.08 0.08 72 1015.5
20260507133057 17 122 3.2 9.7 0.00 0.08 0.08 72 1015.5
20260507132551 17 120 6.4 11.3 0.00 0.08 0.08 72 1015.5
20260507132044 17 60 4.8 11.3 0.00 0.08 0.08 71 1015.5
20260507131542 17 125 1.6 8.0 0.00 0.08 0.08 72 1015.5
20260507131032 17 174 1.6 8.0 0.00 0.08 0.08 70 1015.6
20260507130527 16 216 1.6 8.0 0.00 0.08 0.08 73 1015.6
20260507125514 16 203 1.6 8.0 0.00 0.08 0.08 75 1015.7
20260507124511 16 187 3.2 6.4 0.00 0.08 0.08 75 1015.8
20260507123511 16 114 3.2 9.7 0.00 0.08 0.08 75 1015.9
20260507122508 16 127 1.6 8.0 0.00 0.08 0.08 74 1016.0
20260507122006 16 231 0.0 3.2 0.00 0.08 0.08 73 1016.1
20260507121507 16 108 1.6 4.8 0.00 0.08 0.08 74 1016.2
20260507121008 16 108 1.6 4.8 0.00 0.08 0.08 73 1016.4
20260507120508 16 129 0.0 3.2 0.00 0.08 0.08 73 1016.4
20260507120008 16 227 1.6 6.4 0.00 0.08 0.08 72 1016.4
20260507115508 16 149 3.2 8.0 0.00 0.08 0.08 72 1016.5
20260507115007 16 75 1.6 8.0 0.00 0.08 0.08 71 1016.5
20260507114508 16 212 0.0 6.4 0.00 0.08 0.08 69 1016.5
20260507114006 16 233 0.0 3.2 0.00 0.08 0.08 69 1016.5
20260507113509 16 293 1.6 4.8 0.00 0.08 0.08 68 1016.6
20260507113009 16 263 0.0 4.8 0.00 0.08 0.08 69 1016.6
20260507112004 16 263 1.6 8.0 0.00 0.08 0.08 68 1016.5
20260507111506 16 262 1.6 11.3 0.00 0.08 0.08 68 1016.6
20260507111005 16 262 1.6 11.3 0.00 0.08 0.08 68 1016.7
20260507110506 16 263 1.6 8.0 0.03 0.08 0.08 70 1016.8
20260507110008 16 263 0.0 4.8 0.03 0.08 0.08 71 1016.7
20260507105007 16 263 3.2 8.0 0.03 0.08 0.08 71 1016.9
20260507104506 16 263 3.2 8.0 0.03 0.08 0.08 72 1016.9
20260507104009 16 288 3.2 12.9 0.03 0.08 0.08 72 1016.9
20260507103507 16 262 1.6 12.9 0.03 0.08 0.08 72 1017.0
20260507103005 16 277 1.6 6.4 0.03 0.08 0.08 75 1017.0
20260507101959 16 303 1.6 9.7 0.05 0.08 0.08 74 1017.1
20260507101001 15 305 0.0 4.8 0.05 0.08 0.08 75 1017.2
20260507100459 15 349 0.0 4.8 0.03 0.05 0.05 74 1017.2
20260507094954 15 319 0.0 3.2 0.03 0.05 0.05 76 1017.2
20260507094454 15 287 0.0 1.6 0.03 0.05 0.05 77 1017.3
20260507093952 15 287 0.0 1.6 0.05 0.05 0.05 77 1017.3
20260507093450 15 308 0.0 0.0 0.05 0.05 0.05 78 1017.3
20260507092947 15 306 0.0 1.6 0.05 0.05 0.05 77 1017.3
20260507092446 15 308 0.0 1.6 0.05 0.05 0.05 77 1017.2
20260507091946 15 287 0.0 1.6 0.03 0.05 0.05 77 1017.2
20260507091447 15 315 0.0 1.6 0.03 0.05 0.05 78 1017.2
20260507090956 15 286 0.0 1.6 0.03 0.05 0.05 78 1017.2
20260507090442 15 287 0.0 1.6 0.03 0.05 0.05 77 1017.1
20260507085943 15 286 0.0 1.6 0.03 0.05 0.05 77 1017.1
20260507085442 15 287 0.0 1.6 0.03 0.05 0.05 78 1017.0
20260507084942 15 287 0.0 1.6 0.03 0.05 0.05 78 1017.0
20260507083942 15 287 0.0 1.6 0.00 0.03 0.03 78 1017.1
20260507082945 15 287 0.0 3.2 0.00 0.03 0.03 78 1017.2
20260507082439 15 307 1.6 4.8 0.00 0.03 0.03 78 1017.2
20260507081938 15 287 1.6 8.0 0.00 0.03 0.03 77 1017.2
20260507081438 15 288 1.6 8.0 0.00 0.03 0.03 76 1017.1
20260507080938 15 325 0.0 4.8 0.03 0.03 0.03 77 1017.1
20260507075940 14 310 1.6 4.8 0.03 0.03 0.03 77 1017.1
20260507075440 14 319 1.6 4.8 0.03 0.03 0.03 76 1017.1
20260507074442 14 298 0.0 3.2 0.03 0.03 0.03 77 1017.0
20260507073940 14 309 0.0 4.8 0.03 0.03 0.03 78 1016.9
20260507072940 13 308 1.6 8.0 0.03 0.03 0.03 76 1016.9
20260507072438 13 313 1.6 9.7 0.03 0.03 0.03 76 1016.8
20260507071938 13 321 1.6 9.7 0.03 0.03 0.03 76 1016.8
20260507071439 13 333 1.6 9.7 0.03 0.03 0.03 76 1016.8
20260507070938 13 297 1.6 9.7 0.00 0.00 0.00 75 1016.8
20260507070438 13 29 3.2 9.7 0.00 0.00 0.00 73 1016.7
20260507065936 14 345 3.2 9.7 0.00 0.00 0.00 73 1016.7
20260507065433 14 344 1.6 8.0 0.00 0.00 0.00 73 1016.7
20260507064933 14 48 0.0 4.8 0.00 0.00 0.00 73 1016.7
20260507064427 14 33 0.0 3.2 0.00 0.00 0.00 73 1016.7
20260507063415 14 351 0.0 4.8 0.00 0.00 0.00 72 1016.6
20260507062909 14 24 0.0 1.6 0.00 0.00 0.00 73 1016.6
20260507062405 14 22 0.0 3.2 0.00 0.00 0.00 72 1016.6
20260507061857 14 314 0.0 3.2 0.00 0.00 0.00 71 1016.6
20260507060846 14 314 0.0 4.8 0.00 0.00 0.00 70 1016.6
20260507060340 14 358 0.0 1.6 0.00 0.00 0.00 70 1016.5
20260507055834 14 117 0.0 1.6 0.00 0.00 0.00 68 1016.5
20260507055330 14 139 0.0 1.6 0.00 0.00 0.00 69 1016.4
20260507054830 14 139 0.0 0.0 0.00 0.00 0.00 69 1016.2
20260507054330 14 139 0.0 1.6 0.00 0.00 0.00 70 1016.1
20260507053830 13 138 0.0 3.2 0.00 0.00 0.00 70 1016.0
20260507053330 14 138 0.0 3.2 0.00 0.00 0.00 69 1016.0
20260507051831 13 113 0.0 1.6 0.00 0.00 0.00 72 1015.8
20260507051344 13 113 0.0 1.6 0.00 0.00 0.00 72 1015.7
20260507050330 13 113 0.0 1.6 0.00 0.00 0.00 74 1015.7
20260507045832 13 113 0.0 1.6 0.00 0.00 0.00 74 1015.6
20260507044332 12 113 0.0 1.6 0.00 0.00 0.00 75 1015.5
20260507043831 12 113 0.0 1.6 0.00 0.00 0.00 75 1015.3
20260507043333 12 120 0.0 1.6 0.00 0.00 0.00 76 1015.3
20260507042827 12 120 0.0 1.6 0.00 0.00 0.00 76 1015.2
20260507042321 12 120 0.0 1.6 0.00 0.00 0.00 76 1015.3
20260507041815 12 120 0.0 1.6 0.00 0.00 0.00 76 1015.3
20260507041309 12 120 0.0 1.6 0.00 0.00 0.00 76 1015.2
20260507040803 11 120 0.0 1.6 0.00 0.00 0.00 76 1015.2
20260507040257 11 120 0.0 1.6 0.00 0.00 0.00 76 1015.2
20260507035751 11 120 0.0 1.6 0.00 0.00 0.00 76 1015.1
20260507035245 11 120 0.0 1.6 0.00 0.00 0.00 76 1015.1
20260507034233 11 120 0.0 1.6 0.00 0.00 0.00 76 1015.1
20260507033726 11 120 0.0 1.6 0.00 0.00 0.00 76 1014.9
20260507032209 11 120 0.0 1.6 0.00 0.00 0.00 74 1014.8
20260507031703 12 117 0.0 1.6 0.00 0.00 0.00 73 1014.8
20260507031157 12 117 0.0 1.6 0.00 0.00 0.00 73 1014.8
20260507030145 12 117 0.0 0.0 0.00 0.00 0.00 73 1014.7
20260507025639 12 117 0.0 0.0 0.00 0.00 0.00 73 1014.7
20260507024628 12 117 0.0 1.6 0.00 0.00 0.00 73 1014.7
20260507023110 12 117 0.0 0.0 0.00 0.00 0.00 72 1014.6
20260507022602 12 117 0.0 0.0 0.00 0.00 0.00 72 1014.5
20260507022058 12 117 0.0 0.0 0.00 0.00 0.00 72 1014.6
20260507021551 12 117 0.0 1.6 0.00 0.00 0.00 71 1014.5
20260507021046 12 117 0.0 1.6 0.00 0.00 0.00 71 1014.5
20260507020033 12 117 0.0 1.6 0.00 0.00 0.00 71 1014.5
20260507015526 12 117 0.0 1.6 0.00 0.00 0.00 71 1014.5
20260507015021 12 117 0.0 1.6 0.00 0.00 0.00 71 1014.5